ANA211 RJTT-EGLL

Flight info

Callsign ANA211
Flight time N/A
Altitude 29000
Route INUBO Y808 PUTER/N0504F300 A590 PUGAL/N0495F310 A590 PLADO/N0498F320 A590 PUGGY/N0489F330 DCT BET DCT FYU J167 POTAT DCT 6930N13000W 70N120W 70N110W/N0483F350 70N100W 69N090W 69N080W 6830N07000W/M084F350 DCT CANEL DCT 68N060W 67N050W 66N040W 64N030W/M084F370 6130N02000W DCT ETILO/N0487F370 DCT EVNAL DCT AKOMU DCT VAMEB DCT NUGRA
Aircraft B77W/H-SDE1E2E3FGHIJ2J3J4J5M1RWXY/LB1D1

Departure

Time 2026-05-07 03:38
Airport Tokyo Haneda International Airport (RJTT)

Arrival

Time N/A
Airport London Heathrow Airport (EGLL)
Time Latitude Longitude Altitude Speed Heading
2026-05-07 01:26 35.54792 139.79290 29 ft 0 kts 330°
2026-05-07 03:24 35.54784 139.79296 28 ft 2 kts 330°
2026-05-07 03:24 35.54770 139.79306 27 ft 2 kts 331°
2026-05-07 03:24 35.54755 139.79315 27 ft 2 kts 332°
2026-05-07 03:24 35.54746 139.79321 27 ft 2 kts 333°
2026-05-07 03:25 35.54732 139.79330 27 ft 2 kts 334°
2026-05-07 03:25 35.54717 139.79338 27 ft 2 kts 338°
2026-05-07 03:25 35.54701 139.79345 28 ft 2 kts 343°
2026-05-07 03:25 35.54685 139.79350 27 ft 2 kts
2026-05-07 03:26 35.54670 139.79344 28 ft 2 kts 47°
2026-05-07 03:26 35.54666 139.79338 27 ft 0 kts 56°
2026-05-07 03:30 35.54669 139.79344 28 ft 4 kts 58°
2026-05-07 03:30 35.54696 139.79400 29 ft 9 kts 60°
2026-05-07 03:30 35.54733 139.79479 29 ft 12 kts 60°
2026-05-07 03:30 35.54775 139.79568 28 ft 12 kts 60°
2026-05-07 03:31 35.54836 139.79629 28 ft 13 kts 358°
2026-05-07 03:31 35.54916 139.79587 28 ft 13 kts 330°
2026-05-07 03:31 35.54992 139.79533 28 ft 13 kts 329°
2026-05-07 03:31 35.55067 139.79479 28 ft 12 kts 330°
2026-05-07 03:32 35.55143 139.79427 28 ft 12 kts 330°
2026-05-07 03:32 35.55219 139.79374 28 ft 12 kts 328°
2026-05-07 03:32 35.55295 139.79317 28 ft 15 kts 329°
2026-05-07 03:32 35.55387 139.79252 28 ft 15 kts 330°
2026-05-07 03:33 35.55479 139.79188 28 ft 15 kts 330°
2026-05-07 03:33 35.55570 139.79123 28 ft 15 kts 329°
2026-05-07 03:33 35.55661 139.79058 28 ft 15 kts 329°
2026-05-07 03:33 35.55752 139.78993 28 ft 15 kts 330°
2026-05-07 03:34 35.55843 139.78930 28 ft 15 kts 330°
2026-05-07 03:34 35.55934 139.78865 28 ft 15 kts 329°
2026-05-07 03:34 35.56024 139.78800 28 ft 15 kts 329°
2026-05-07 03:34 35.56107 139.78740 28 ft 13 kts 329°
2026-05-07 03:35 35.56186 139.78683 28 ft 13 kts 329°
2026-05-07 03:35 35.56265 139.78628 28 ft 13 kts 332°
2026-05-07 03:35 35.56343 139.78575 28 ft 13 kts 329°
2026-05-07 03:35 35.56421 139.78518 28 ft 13 kts 329°
2026-05-07 03:36 35.56500 139.78501 27 ft 13 kts 42°
2026-05-07 03:36 35.56546 139.78594 28 ft 13 kts 61°
2026-05-07 03:36 35.56554 139.78688 28 ft 11 kts 128°
2026-05-07 03:36 35.56525 139.78704 28 ft 4 kts 160°
2026-05-07 03:37 35.56515 139.78711 28 ft 0 kts 149°
2026-05-07 03:37 35.56498 139.78724 28 ft 10 kts 149°
2026-05-07 03:37 35.56295 139.78868 28 ft 70 kts 150°
2026-05-07 03:37 35.55631 139.79336 29 ft 148 kts 150°
2026-05-07 03:38 35.54526 139.80105 127 ft 205 kts 152°
2026-05-07 03:38 35.53242 139.81027 665 ft 229 kts 146°
2026-05-07 03:38 35.52142 139.82384 1637 ft 217 kts 134°
2026-05-07 03:38 35.51128 139.83763 2333 ft 221 kts 136°
2026-05-07 03:39 35.50044 139.85162 2579 ft 235 kts 136°
2026-05-07 03:39 35.48873 139.86660 2782 ft 252 kts 137°
2026-05-07 03:39 35.47619 139.88256 3074 ft 266 kts 136°
2026-05-07 03:39 35.46325 139.89936 3505 ft 275 kts 131°
2026-05-07 03:40 35.45493 139.92068 3928 ft 286 kts 99°
2026-05-07 03:40 35.45671 139.94490 4424 ft 296 kts 68°
2026-05-07 03:40 35.46831 139.96577 4903 ft 299 kts 46°
2026-05-07 03:40 35.48339 139.98359 5336 ft 303 kts 34°
2026-05-07 03:41 35.50281 139.99316 5734 ft 303 kts
2026-05-07 03:41 35.52332 139.98987 6305 ft 295 kts 339°
2026-05-07 03:41 35.54314 139.98266 6800 ft 300 kts 340°
2026-05-07 03:41 35.56335 139.97578 7374 ft 302 kts 340°
2026-05-07 03:42 35.58375 139.96885 7942 ft 305 kts 340°
2026-05-07 03:42 35.60427 139.96194 8572 ft 305 kts 342°
2026-05-07 03:42 35.62560 139.95916 8980 ft 315 kts 358°
2026-05-07 03:42 35.64768 139.96107 9470 ft 321 kts
2026-05-07 03:43 35.66997 139.96350 10048 ft 322 kts
2026-05-07 03:43 35.69259 139.96546 10360 ft 333 kts 360°
2026-05-07 03:43 35.71608 139.96712 10480 ft 351 kts 359°
2026-05-07 03:43 35.74108 139.96675 10565 ft 359 kts 345°
2026-05-07 03:44 35.76446 139.95703 10690 ft 365 kts 332°
2026-05-07 03:44 35.78831 139.94458 10930 ft 379 kts 334°
2026-05-07 03:44 35.81312 139.93240 11363 ft 387 kts 334°
2026-05-07 03:44 35.83841 139.92039 11899 ft 392 kts 335°
2026-05-07 03:45 35.86414 139.90831 12520 ft 395 kts 334°
2026-05-07 03:45 35.88988 139.89623 13157 ft 397 kts 334°
2026-05-07 03:45 35.91583 139.88402 13761 ft 401 kts 335°
2026-05-07 03:45 35.94209 139.87164 14257 ft 405 kts 335°
2026-05-07 03:46 35.96822 139.85983 14736 ft 407 kts 340°
2026-05-07 03:46 35.99684 139.85606 15001 ft 424 kts
2026-05-07 03:46 36.02560 139.86545 15454 ft 430 kts 20°
2026-05-07 03:46 36.05352 139.87959 15895 ft 434 kts 19°
2026-05-07 03:47 36.08178 139.89333 16385 ft 438 kts 19°
2026-05-07 03:47 36.11031 139.90679 16908 ft 438 kts 18°
2026-05-07 03:47 36.13888 139.92016 16967 ft 440 kts 18°
2026-05-07 03:47 36.16688 139.93515 16964 ft 438 kts 30°
2026-05-07 03:48 36.19003 139.95998 16995 ft 444 kts 52°
2026-05-07 03:48 36.20602 139.99216 16965 ft 445 kts 68°
2026-05-07 03:48 36.21458 140.02871 16970 ft 441 kts 81°
2026-05-07 03:48 36.21968 140.06617 16974 ft 442 kts 82°
2026-05-07 03:49 36.22516 140.10367 16979 ft 443 kts 81°
2026-05-07 03:49 36.23107 140.14118 16961 ft 444 kts 80°
2026-05-07 03:49 36.23712 140.17869 16986 ft 444 kts 80°
2026-05-07 03:49 36.24315 140.21630 16984 ft 443 kts 81°
2026-05-07 03:50 36.24487 140.25384 16974 ft 434 kts 101°
2026-05-07 03:50 36.23643 140.28933 17005 ft 432 kts 120°
2026-05-07 03:50 36.22058 140.32094 17303 ft 432 kts 133°
2026-05-07 03:50 36.19955 140.34689 17818 ft 424 kts 146°
2026-05-07 03:51 36.17623 140.36938 18278 ft 426 kts 147°
2026-05-07 03:51 36.15279 140.39128 18679 ft 429 kts 147°
2026-05-07 03:51 36.12887 140.41357 19120 ft 432 kts 147°
2026-05-07 03:51 36.10486 140.43614 19541 ft 435 kts 147°
2026-05-07 03:52 36.08074 140.45904 19953 ft 438 kts 147°
2026-05-07 03:52 36.05653 140.48217 20370 ft 441 kts 147°
2026-05-07 03:52 36.03219 140.50555 20791 ft 443 kts 147°
2026-05-07 03:52 36.00780 140.52902 21201 ft 446 kts 146°
2026-05-07 03:53 35.98323 140.55266 21602 ft 449 kts 146°
2026-05-07 03:53 35.95850 140.57644 22004 ft 452 kts 146°
2026-05-07 03:53 35.93362 140.60035 22395 ft 454 kts 146°
2026-05-07 03:53 35.90857 140.62439 22785 ft 457 kts 146°
2026-05-07 03:54 35.88339 140.64853 23156 ft 460 kts 146°
2026-05-07 03:54 35.85837 140.67249 23518 ft 462 kts 146°
2026-05-07 03:54 35.83287 140.69690 23823 ft 465 kts 147°
2026-05-07 03:54 35.80727 140.72140 24113 ft 468 kts 147°
2026-05-07 03:55 35.78145 140.74607 24421 ft 470 kts 147°
2026-05-07 03:55 35.75558 140.77077 24726 ft 471 kts 147°
2026-05-07 03:55 35.73109 140.79781 24920 ft 480 kts 133°
2026-05-07 03:55 35.71346 140.83314 25085 ft 493 kts 114°
2026-05-07 03:56 35.70258 140.87324 25304 ft 495 kts 111°
2026-05-07 03:56 35.69172 140.91370 25521 ft 499 kts 112°
2026-05-07 03:56 35.68035 140.95415 25825 ft 500 kts 112°
2026-05-07 03:56 35.66881 140.99401 26173 ft 500 kts 113°
2026-05-07 03:57 35.65693 141.03440 26518 ft 501 kts 113°
2026-05-07 03:57 35.64498 141.07468 26821 ft 503 kts 113°
2026-05-07 03:57 35.63295 141.11515 27101 ft 505 kts 113°
2026-05-07 03:57 35.62086 141.15578 27338 ft 507 kts 113°
2026-05-07 03:58 35.60871 141.19665 27551 ft 511 kts 113°
2026-05-07 03:58 35.59650 141.23770 27795 ft 513 kts 113°
2026-05-07 03:58 35.58425 141.27890 28084 ft 514 kts 112°
2026-05-07 03:58 35.57198 141.32013 28374 ft 514 kts 112°
2026-05-07 03:59 35.55965 141.36150 28649 ft 515 kts 112°
2026-05-07 03:59 35.54730 141.40286 28912 ft 516 kts 112°
2026-05-07 03:59 35.53490 141.44432 29121 ft 518 kts 112°
2026-05-07 04:00 35.50974 141.52818 29216 ft 529 kts 113°
2026-05-07 04:00 35.49696 141.57070 29367 ft 532 kts 113°
2026-05-07 04:00 35.48417 141.61328 29600 ft 532 kts 113°
2026-05-07 04:00 35.47153 141.65528 29884 ft 532 kts 113°
2026-05-07 04:01 35.45889 141.69864 29959 ft 536 kts 110°
2026-05-07 04:01 35.44338 141.78795 29985 ft 540 kts 99°
2026-05-07 04:02 35.43991 141.88022 30018 ft 544 kts 92°
2026-05-07 04:02 35.44009 141.97296 30010 ft 546 kts 92°
2026-05-07 04:03 35.43982 142.06632 30008 ft 546 kts 92°
2026-05-07 04:03 35.43905 142.15940 30009 ft 546 kts 92°
2026-05-07 04:04 35.43813 142.25247 30013 ft 545 kts 92°
2026-05-07 04:04 35.43718 142.34569 30015 ft 545 kts 92°
2026-05-07 04:05 35.43620 142.43813 30021 ft 546 kts 92°
2026-05-07 04:05 35.43515 142.53123 30020 ft 546 kts 92°
2026-05-07 04:06 35.43420 142.60883 30015 ft 546 kts 92°
2026-05-07 04:06 35.43299 142.70209 30022 ft 547 kts 92°
2026-05-07 04:07 35.43180 142.79526 30015 ft 547 kts 92°
2026-05-07 04:07 35.43049 142.88867 30024 ft 547 kts 92°
2026-05-07 04:08 35.42903 142.98201 30026 ft 548 kts 93°
2026-05-07 04:08 35.42752 143.07542 30031 ft 548 kts 92°
2026-05-07 04:09 35.42595 143.16853 30035 ft 549 kts 93°
2026-05-07 04:09 35.42694 143.26205 30033 ft 548 kts 79°
2026-05-07 04:09 35.43839 143.30638 30039 ft 546 kts 61°
2026-05-07 04:10 35.45874 143.34544 30055 ft 542 kts 47°
2026-05-07 04:10 35.48498 143.37849 30022 ft 538 kts 34°
2026-05-07 04:10 35.51586 143.40356 30037 ft 529 kts 25°
2026-05-07 04:11 35.58054 143.44739 30038 ft 533 kts 24°
2026-05-07 04:11 35.64498 143.49235 30042 ft 537 kts 26°
2026-05-07 04:12 35.70959 143.53903 30048 ft 536 kts 27°
2026-05-07 04:12 35.77314 143.58519 30018 ft 525 kts 27°
2026-05-07 04:13 35.83610 143.63074 30034 ft 525 kts 27°
2026-05-07 04:13 35.89915 143.67664 30032 ft 526 kts 27°
2026-05-07 04:14 35.96228 143.72275 30032 ft 528 kts 27°
2026-05-07 04:14 36.02524 143.76882 30028 ft 522 kts 28°
2026-05-07 04:15 36.08716 143.81424 30026 ft 516 kts 28°
2026-05-07 04:15 36.14867 143.85940 30032 ft 518 kts 28°
2026-05-07 04:16 36.21075 143.90507 30030 ft 519 kts 28°
2026-05-07 04:16 36.27305 143.95089 30032 ft 521 kts 28°
2026-05-07 04:17 36.33547 143.99668 30026 ft 521 kts 28°
2026-05-07 04:17 36.39791 144.04261 30024 ft 521 kts 28°
2026-05-07 04:18 36.46026 144.08861 30024 ft 521 kts 28°
2026-05-07 04:18 36.52248 144.13463 30040 ft 520 kts 27°
2026-05-07 04:19 36.58442 144.18051 30025 ft 521 kts 27°
2026-05-07 04:19 36.64668 144.22671 30024 ft 521 kts 27°
2026-05-07 04:20 36.70892 144.27301 30033 ft 521 kts 27°
2026-05-07 04:20 36.77114 144.31939 30036 ft 521 kts 27°
2026-05-07 04:21 36.86446 144.38920 30027 ft 521 kts 27°
2026-05-07 04:21 36.92626 144.43570 30022 ft 521 kts 27°
2026-05-07 04:22 36.98839 144.48258 30025 ft 522 kts 27°
2026-05-07 04:22 37.05058 144.52959 30045 ft 522 kts 27°
2026-05-07 04:23 37.11284 144.57673 30031 ft 523 kts 27°
2026-05-07 04:23 37.17529 144.62410 30030 ft 524 kts 27°
2026-05-07 04:24 37.23773 144.67156 30029 ft 525 kts 27°
2026-05-07 04:24 37.30025 144.71918 30027 ft 525 kts 27°
2026-05-07 04:25 37.36286 144.76694 30035 ft 527 kts 27°
2026-05-07 04:25 37.42527 144.81466 30029 ft 528 kts 27°
2026-05-07 04:26 37.48809 144.86280 30029 ft 529 kts 27°
2026-05-07 04:26 37.55093 144.91104 30027 ft 529 kts 27°
2026-05-07 04:27 37.61375 144.95936 30028 ft 529 kts 27°
2026-05-07 04:27 37.67655 145.00777 30034 ft 529 kts 27°
2026-05-07 04:28 37.73938 145.05628 30028 ft 529 kts 27°
2026-05-07 04:28 37.80173 145.10454 30029 ft 529 kts 27°
2026-05-07 04:29 37.86459 145.15329 30039 ft 529 kts 27°
2026-05-07 04:29 37.92744 145.20211 30034 ft 530 kts 27°
2026-05-07 04:30 37.99036 145.25110 30031 ft 531 kts 27°
2026-05-07 04:30 38.05333 145.30021 30037 ft 532 kts 27°
2026-05-07 04:31 38.11597 145.34922 30053 ft 532 kts 26°
2026-05-07 04:31 38.17910 145.39869 30034 ft 533 kts 26°
2026-05-07 04:32 38.24218 145.44824 30031 ft 533 kts 27°
2026-05-07 04:32 38.30522 145.49786 30033 ft 533 kts 27°
2026-05-07 04:33 38.36470 145.55489 30032 ft 540 kts 38°
2026-05-07 04:33 38.41957 145.62037 30040 ft 540 kts 39°
2026-05-07 04:34 38.47396 145.68565 30038 ft 540 kts 38°
2026-05-07 04:34 38.52889 145.75098 30037 ft 539 kts 38°
2026-05-07 04:35 38.58400 145.81624 30047 ft 539 kts 38°
2026-05-07 04:35 38.63909 145.88154 30041 ft 539 kts 38°
2026-05-07 04:36 38.69401 145.94684 30072 ft 539 kts 38°
2026-05-07 04:36 38.74873 146.01210 30049 ft 540 kts 38°
2026-05-07 04:37 38.80381 146.07790 30047 ft 541 kts 38°
2026-05-07 04:37 38.85912 146.14415 30041 ft 542 kts 38°
2026-05-07 04:38 38.91384 146.20984 30042 ft 542 kts 38°
2026-05-07 04:38 38.96905 146.27626 30040 ft 542 kts 38°
2026-05-07 04:39 39.02413 146.34268 30051 ft 543 kts 38°
2026-05-07 04:39 39.07927 146.40930 30042 ft 544 kts 38°
2026-05-07 04:40 39.13416 146.47576 30041 ft 545 kts 38°
2026-05-07 04:40 39.18937 146.54277 30037 ft 545 kts 38°
2026-05-07 04:41 39.24464 146.61003 30038 ft 545 kts 38°
2026-05-07 04:41 39.29978 146.67727 30038 ft 545 kts 38°
2026-05-07 04:42 39.35493 146.74468 30046 ft 546 kts 38°
2026-05-07 04:42 39.40980 146.81188 30038 ft 547 kts 38°
2026-05-07 04:43 39.46499 146.87964 30044 ft 547 kts 38°
2026-05-07 04:43 39.52015 146.94752 30034 ft 547 kts 38°
2026-05-07 04:44 39.57526 147.01550 30034 ft 547 kts 38°
2026-05-07 04:44 39.63037 147.08362 30039 ft 547 kts 38°
2026-05-07 04:45 39.68548 147.15192 30037 ft 547 kts 38°
2026-05-07 04:45 39.74060 147.22037 30030 ft 547 kts 38°
2026-05-07 04:46 39.79524 147.28839 30035 ft 547 kts 38°
2026-05-07 04:46 39.85019 147.35696 30043 ft 547 kts 38°
2026-05-07 04:47 39.90500 147.42552 30030 ft 546 kts 38°
2026-05-07 04:47 39.95978 147.49421 30067 ft 546 kts 38°
2026-05-07 04:48 40.01452 147.56297 30037 ft 546 kts 38°
2026-05-07 04:48 40.06925 147.63190 30035 ft 546 kts 38°
2026-05-07 04:49 40.12384 147.70083 30039 ft 546 kts 38°
2026-05-07 04:49 40.17838 147.76986 30030 ft 545 kts 38°
2026-05-07 04:50 40.23286 147.83897 30032 ft 545 kts 38°
2026-05-07 04:50 40.28695 147.90773 30043 ft 545 kts 38°
2026-05-07 04:51 40.34136 147.97708 30039 ft 546 kts 38°
2026-05-07 04:51 40.39580 148.04665 30031 ft 546 kts 38°
2026-05-07 04:52 40.44091 148.10460 30041 ft 546 kts 38°
2026-05-07 04:52 40.50410 148.18574 30036 ft 545 kts 38°
2026-05-07 04:53 40.54957 148.24418 30028 ft 545 kts 38°
2026-05-07 04:53 40.60348 148.31365 30035 ft 545 kts 38°
2026-05-07 04:54 40.65754 148.38352 30027 ft 544 kts 38°
2026-05-07 04:54 40.71157 148.45350 30026 ft 544 kts 39°
2026-05-07 04:55 40.76544 148.52347 30034 ft 543 kts 39°
2026-05-07 04:55 40.81932 148.59360 30021 ft 543 kts 39°
2026-05-07 04:56 40.87285 148.66345 30022 ft 543 kts 39°
2026-05-07 04:56 40.92651 148.73364 30028 ft 543 kts 39°
2026-05-07 04:57 40.98021 148.80405 30026 ft 543 kts 39°
2026-05-07 04:57 41.03377 148.87447 30018 ft 543 kts 39°
2026-05-07 04:58 41.08743 148.94516 30027 ft 543 kts 39°
2026-05-07 04:58 41.14064 149.01547 30028 ft 543 kts 39°
2026-05-07 04:59 41.19417 149.08645 30022 ft 543 kts 39°
2026-05-07 04:59 41.24757 149.15743 30023 ft 543 kts 39°
2026-05-07 05:00 41.30098 149.22861 30016 ft 543 kts 39°
2026-05-07 05:00 41.35428 149.29982 30018 ft 542 kts 39°
2026-05-07 05:01 41.40741 149.37095 30013 ft 541 kts 39°
2026-05-07 05:01 41.46038 149.44206 30011 ft 540 kts 39°
2026-05-07 05:02 41.51290 149.51273 30017 ft 539 kts 40°
2026-05-07 05:02 41.56568 149.58392 30012 ft 539 kts 40°
2026-05-07 05:03 41.61843 149.65525 30006 ft 539 kts 40°
2026-05-07 05:03 41.67112 149.72667 30018 ft 539 kts 40°
2026-05-07 05:04 41.72340 149.79771 30011 ft 539 kts 40°
2026-05-07 05:04 41.77592 149.86927 30004 ft 538 kts 40°
2026-05-07 05:05 41.82845 149.94101 30020 ft 538 kts 40°
2026-05-07 05:05 41.88064 150.01246 30010 ft 538 kts 40°
2026-05-07 05:06 41.93299 150.08431 30001 ft 538 kts 40°
2026-05-07 05:06 41.98557 150.15666 30022 ft 537 kts 40°
2026-05-07 05:07 42.03758 150.22841 30000 ft 537 kts 40°
2026-05-07 05:07 42.08965 150.30041 29997 ft 536 kts 40°
2026-05-07 05:08 42.14129 150.37199 30006 ft 536 kts 40°
2026-05-07 05:08 42.19324 150.44419 30008 ft 536 kts 40°
2026-05-07 05:09 42.24517 150.51654 29999 ft 536 kts 40°
2026-05-07 05:09 42.29701 150.58894 30009 ft 536 kts 40°
2026-05-07 05:10 42.34880 150.66148 29988 ft 536 kts 40°
2026-05-07 05:10 42.40051 150.73406 29998 ft 536 kts 40°
2026-05-07 05:11 42.45184 150.80631 29997 ft 536 kts 40°
2026-05-07 05:11 42.50349 150.87919 30009 ft 536 kts 40°
2026-05-07 05:12 42.55517 150.95228 29991 ft 537 kts 40°
2026-05-07 05:12 42.60679 151.02550 29984 ft 537 kts 40°
2026-05-07 05:13 42.65841 151.09890 29984 ft 536 kts 40°
2026-05-07 05:13 42.70989 151.17228 29980 ft 536 kts 40°
2026-05-07 05:14 42.76103 151.24538 29981 ft 536 kts 40°
2026-05-07 05:14 42.81245 151.31905 29985 ft 537 kts 40°
2026-05-07 05:15 42.86390 151.39295 29983 ft 537 kts 40°
2026-05-07 05:15 42.91532 151.46701 29973 ft 537 kts 40°
2026-05-07 05:16 42.96669 151.54115 29977 ft 537 kts 40°
2026-05-07 05:16 43.01798 151.61539 29968 ft 538 kts 40°
2026-05-07 05:17 43.06924 151.68986 29975 ft 537 kts 40°
2026-05-07 05:17 43.12048 151.76445 29979 ft 538 kts 40°
2026-05-07 05:18 43.17167 151.83913 29987 ft 538 kts 40°
2026-05-07 05:18 43.22256 151.91357 29973 ft 538 kts 40°
2026-05-07 05:19 43.27369 151.98858 29974 ft 539 kts 40°
2026-05-07 05:19 43.32486 152.06383 29966 ft 539 kts 40°
2026-05-07 05:20 43.37595 152.13917 29965 ft 539 kts 40°
2026-05-07 05:20 43.42704 152.21471 29967 ft 539 kts 40°
2026-05-07 05:21 43.50372 152.32847 29986 ft 539 kts 40°
2026-05-07 05:22 43.55476 152.40444 29965 ft 540 kts 41°
2026-05-07 05:22 43.60549 152.48016 29965 ft 541 kts 41°
2026-05-07 05:23 43.65652 152.55653 29959 ft 541 kts 41°
2026-05-07 05:23 43.70757 152.63313 29964 ft 541 kts 41°
2026-05-07 05:24 43.75852 152.70979 29968 ft 541 kts 41°
2026-05-07 05:24 43.80941 152.78657 29956 ft 541 kts 41°
2026-05-07 05:25 43.86025 152.86348 29962 ft 540 kts 41°
2026-05-07 05:25 43.91091 152.94033 29966 ft 540 kts 41°
2026-05-07 05:26 43.96155 153.01735 29960 ft 540 kts 41°
2026-05-07 05:26 44.01181 153.09401 29958 ft 540 kts 41°
2026-05-07 05:27 44.06240 153.17137 29968 ft 540 kts 41°
2026-05-07 05:27 44.11295 153.24888 29951 ft 540 kts 41°
2026-05-07 05:28 44.16337 153.32642 29957 ft 540 kts 41°
2026-05-07 05:28 44.21378 153.40414 29951 ft 541 kts 41°
2026-05-07 05:29 44.26386 153.48159 29950 ft 541 kts 41°
2026-05-07 05:29 44.31429 153.55978 29944 ft 541 kts 41°
2026-05-07 05:30 44.36468 153.63813 29945 ft 542 kts 41°
2026-05-07 05:30 44.41500 153.71658 29959 ft 542 kts 41°
2026-05-07 05:31 44.46531 153.79525 29944 ft 542 kts 41°
2026-05-07 05:31 44.51559 153.87408 29970 ft 542 kts 42°
2026-05-07 05:32 44.56586 153.95312 29956 ft 543 kts 42°
2026-05-07 05:32 44.61576 154.03180 29939 ft 543 kts 42°
2026-05-07 05:33 44.66599 154.11124 29942 ft 544 kts 42°
2026-05-07 05:33 44.71616 154.19079 29945 ft 544 kts 42°
2026-05-07 05:34 44.76629 154.27051 29940 ft 544 kts 42°
2026-05-07 05:34 44.81638 154.35041 29942 ft 544 kts 42°
2026-05-07 05:35 44.86648 154.43057 29951 ft 545 kts 42°
2026-05-07 05:35 44.91610 154.51162 29941 ft 546 kts 43°
2026-05-07 05:36 44.96542 154.59328 29941 ft 546 kts 43°
2026-05-07 05:36 45.01432 154.67436 29934 ft 546 kts 43°
2026-05-07 05:37 45.06360 154.75609 29950 ft 546 kts 43°
2026-05-07 05:37 45.11285 154.83791 29941 ft 546 kts 43°
2026-05-07 05:38 45.16207 154.91993 29930 ft 546 kts 43°
2026-05-07 05:38 45.21120 155.00206 29962 ft 546 kts 44°
2026-05-07 05:39 45.26005 155.08394 29943 ft 547 kts 44°
2026-05-07 05:39 45.30917 155.16653 29934 ft 547 kts 44°
2026-05-07 05:40 45.35825 155.24931 29934 ft 547 kts 44°
2026-05-07 05:40 45.39902 155.31825 29946 ft 547 kts 44°
2026-05-07 05:41 45.44804 155.40138 29935 ft 548 kts 44°
2026-05-07 05:41 45.49700 155.48465 29937 ft 548 kts 44°
2026-05-07 05:42 45.54586 155.56800 29970 ft 548 kts 44°
2026-05-07 05:42 45.59448 155.65116 29939 ft 549 kts 44°
2026-05-07 05:43 45.64333 155.73498 29938 ft 549 kts 44°
2026-05-07 05:43 45.69215 155.81899 29950 ft 549 kts 44°
2026-05-07 05:44 45.74092 155.90319 29935 ft 549 kts 44°
2026-05-07 05:44 45.78961 155.98751 29934 ft 549 kts 44°
2026-05-07 05:45 45.83827 156.07201 29934 ft 549 kts 44°
2026-05-07 05:45 45.88687 156.15667 29934 ft 549 kts 44°
2026-05-07 05:46 45.93543 156.24152 29941 ft 550 kts 44°
2026-05-07 05:46 45.98362 156.32598 29930 ft 550 kts 44°
2026-05-07 05:47 46.03221 156.41139 29955 ft 551 kts 44°
2026-05-07 05:47 46.08077 156.49702 29936 ft 551 kts 44°
2026-05-07 05:48 46.12920 156.58268 29933 ft 551 kts 44°
2026-05-07 05:48 46.17756 156.66850 29937 ft 551 kts 44°
2026-05-07 05:49 46.22587 156.75448 29939 ft 551 kts 44°
2026-05-07 05:49 46.27388 156.84019 29944 ft 551 kts 44°
2026-05-07 05:50 46.32211 156.92655 29937 ft 551 kts 44°
2026-05-07 05:50 46.37031 157.01300 29950 ft 551 kts 44°
2026-05-07 05:51 46.41846 157.09956 29941 ft 551 kts 44°
2026-05-07 05:51 46.46639 157.18622 29929 ft 550 kts 44°
2026-05-07 05:52 46.51417 157.27293 29946 ft 550 kts 44°
2026-05-07 05:52 46.56162 157.35927 29941 ft 549 kts 44°
2026-05-07 05:53 46.60924 157.44615 29981 ft 549 kts 44°
2026-05-07 05:53 46.65681 157.53322 29954 ft 549 kts 44°
2026-05-07 05:54 46.70423 157.62031 29952 ft 548 kts 44°
2026-05-07 05:54 46.75159 157.70754 29943 ft 548 kts 44°
2026-05-07 05:55 46.79881 157.79479 29951 ft 547 kts 44°
2026-05-07 05:55 46.84561 157.88153 29966 ft 547 kts 44°
2026-05-07 05:56 46.89268 157.96905 29948 ft 547 kts 44°
2026-05-07 05:56 46.93967 158.05671 29957 ft 547 kts 44°
2026-05-07 05:57 46.98673 158.14474 29948 ft 550 kts 45°
2026-05-07 05:57 47.03388 158.23323 29958 ft 552 kts 44°
2026-05-07 05:58 47.08115 158.32226 29954 ft 553 kts 45°
2026-05-07 05:58 47.12841 158.41158 29954 ft 554 kts 45°
2026-05-07 05:59 47.17564 158.50115 29970 ft 554 kts 44°
2026-05-07 05:59 47.22281 158.59086 29956 ft 554 kts 45°
2026-05-07 06:00 47.26991 158.68074 29958 ft 554 kts 44°
2026-05-07 06:00 47.31660 158.77008 29961 ft 553 kts 45°
2026-05-07 06:01 47.36346 158.86013 29974 ft 553 kts 45°
2026-05-07 06:01 47.41025 158.95030 29957 ft 553 kts 45°
2026-05-07 06:02 47.45689 159.04045 29959 ft 552 kts 45°
2026-05-07 06:02 47.50344 159.13073 29959 ft 552 kts 45°
2026-05-07 06:03 47.54963 159.22061 29959 ft 552 kts 45°
2026-05-07 06:03 47.59610 159.31134 29962 ft 552 kts 45°
2026-05-07 06:04 47.64247 159.40218 29958 ft 553 kts 45°
2026-05-07 06:04 47.68885 159.49332 29963 ft 555 kts 44°
2026-05-07 06:05 47.73531 159.58492 29958 ft 555 kts 45°
2026-05-07 06:05 47.78176 159.67685 29949 ft 555 kts 45°
2026-05-07 06:06 47.82780 159.76828 29974 ft 555 kts 44°
2026-05-07 06:06 47.87393 159.86018 29952 ft 555 kts 45°
2026-05-07 06:07 47.92018 159.95247 29954 ft 555 kts 44°
2026-05-07 06:07 47.96629 160.04477 29944 ft 555 kts 45°
2026-05-07 06:08 48.01230 160.13743 30004 ft 555 kts 44°
2026-05-07 06:08 48.05793 160.22963 29948 ft 556 kts 44°
2026-05-07 06:09 48.10379 160.32284 29940 ft 556 kts 45°
2026-05-07 06:09 48.14957 160.41628 29937 ft 556 kts 45°
2026-05-07 06:10 48.19542 160.50968 29943 ft 556 kts 45°
2026-05-07 06:10 48.24120 160.60331 29940 ft 556 kts 45°
2026-05-07 06:11 48.28687 160.69722 29937 ft 557 kts 45°
2026-05-07 06:11 48.33144 160.79267 29953 ft 559 kts 46°
2026-05-07 06:12 48.37514 160.88857 29952 ft 560 kts 46°
2026-05-07 06:12 48.41924 160.98536 29927 ft 560 kts 46°
2026-05-07 06:13 48.46338 161.08207 29921 ft 559 kts 46°
2026-05-07 06:13 48.50748 161.17880 29921 ft 559 kts 46°
2026-05-07 06:14 48.55148 161.27567 29921 ft 559 kts 46°
2026-05-07 06:14 48.59532 161.37259 29918 ft 558 kts 46°
2026-05-07 06:15 48.63902 161.46957 29944 ft 558 kts 46°
2026-05-07 06:15 48.68244 161.56627 29913 ft 558 kts 46°
2026-05-07 06:16 48.72597 161.66355 29952 ft 558 kts 46°
2026-05-07 06:16 48.76951 161.76119 29912 ft 559 kts 46°
2026-05-07 06:17 48.81296 161.85900 29910 ft 559 kts 45°
2026-05-07 06:17 48.85638 161.95712 29901 ft 559 kts 46°
2026-05-07 06:18 48.89967 162.05531 29898 ft 558 kts 46°
2026-05-07 06:18 48.94264 162.15309 29897 ft 558 kts 46°
2026-05-07 06:19 48.98566 162.25137 29898 ft 558 kts 45°
2026-05-07 06:19 49.02860 162.34982 29891 ft 557 kts 46°
2026-05-07 06:20 49.07142 162.44838 29894 ft 557 kts 46°
2026-05-07 06:20 49.11416 162.54706 29883 ft 558 kts 46°
2026-05-07 06:21 49.15687 162.64605 29882 ft 558 kts 46°
2026-05-07 06:21 49.19950 162.74524 29887 ft 558 kts 46°
2026-05-07 06:22 49.24204 162.84460 29880 ft 559 kts 46°
2026-05-07 06:22 49.30555 162.99361 29877 ft 559 kts 46°
2026-05-07 06:23 49.34803 163.09375 29873 ft 559 kts 46°
2026-05-07 06:23 49.39032 163.19385 29865 ft 559 kts 46°
2026-05-07 06:24 49.43247 163.29398 29920 ft 559 kts 46°
2026-05-07 06:24 49.47466 163.39455 29867 ft 560 kts 46°
2026-05-07 06:25 49.51694 163.49574 29855 ft 561 kts 46°
2026-05-07 06:25 49.55895 163.59665 29854 ft 561 kts 46°
2026-05-07 06:26 49.60083 163.69768 29855 ft 561 kts 46°
2026-05-07 06:26 49.64278 163.79925 29853 ft 560 kts 46°
2026-05-07 06:27 49.68442 163.90046 29845 ft 559 kts 46°
2026-05-07 06:27 49.71921 163.98532 29847 ft 559 kts 46°
2026-05-07 06:28 49.76054 164.08645 29852 ft 558 kts 46°
2026-05-07 06:28 49.80200 164.18832 29886 ft 558 kts 46°
2026-05-07 06:29 49.84321 164.28992 29840 ft 558 kts 46°
2026-05-07 06:29 49.88449 164.39214 29827 ft 558 kts 46°
2026-05-07 06:30 49.92566 164.49446 29834 ft 558 kts 46°
2026-05-07 06:30 49.96650 164.59607 29822 ft 557 kts 46°
2026-05-07 06:31 50.00732 164.69830 29823 ft 557 kts 46°
2026-05-07 06:31 50.04807 164.80088 29854 ft 557 kts 46°
2026-05-07 06:32 50.08872 164.90357 29816 ft 557 kts 46°
2026-05-07 06:32 50.12931 165.00651 29817 ft 557 kts 46°
2026-05-07 06:33 50.16954 165.10888 29816 ft 558 kts 47°
2026-05-07 06:33 50.20984 165.21254 29826 ft 558 kts 48°
2026-05-07 06:34 50.24966 165.31649 29802 ft 556 kts 49°
2026-05-07 06:34 50.28918 165.42018 29795 ft 554 kts 49°
2026-05-07 06:35 50.32859 165.52377 29793 ft 553 kts 49°
2026-05-07 06:35 50.36761 165.62660 29800 ft 552 kts 49°
2026-05-07 06:36 50.40675 165.73020 29786 ft 551 kts 49°
2026-05-07 06:36 50.44568 165.83371 29785 ft 551 kts 49°
2026-05-07 06:37 50.48453 165.93736 29786 ft 551 kts 49°
2026-05-07 06:37 50.52324 166.04104 29806 ft 549 kts 52°
2026-05-07 06:38 50.56164 166.14446 29778 ft 545 kts 52°
2026-05-07 06:38 50.59966 166.24720 29767 ft 542 kts 52°
2026-05-07 06:39 50.63727 166.34916 29771 ft 541 kts 52°
2026-05-07 06:39 50.67499 166.45177 29772 ft 542 kts 52°
2026-05-07 06:40 50.71274 166.55490 29788 ft 543 kts 52°
2026-05-07 06:40 50.75054 166.65864 29769 ft 545 kts 53°
2026-05-07 06:41 50.78838 166.76293 29760 ft 547 kts 53°
2026-05-07 06:41 50.82608 166.86722 29771 ft 544 kts 54°
2026-05-07 06:42 50.86335 166.97096 29750 ft 541 kts 54°
2026-05-07 06:42 50.90014 167.07365 29751 ft 537 kts 54°
2026-05-07 06:43 50.93701 167.17657 29749 ft 536 kts 54°
2026-05-07 06:43 50.97363 167.27935 29749 ft 535 kts 55°
2026-05-07 06:44 51.01008 167.38230 29745 ft 534 kts 55°
2026-05-07 06:44 51.04646 167.48548 29739 ft 534 kts 55°
2026-05-07 06:45 51.08271 167.58869 29743 ft 535 kts 55°
2026-05-07 06:45 51.11889 167.69216 29746 ft 535 kts 56°
2026-05-07 06:46 51.15476 167.79509 29738 ft 534 kts 56°
2026-05-07 06:46 51.19074 167.89873 29754 ft 533 kts 56°
2026-05-07 06:47 51.22652 168.00228 29726 ft 532 kts 56°
2026-05-07 06:47 51.26207 168.10567 29726 ft 530 kts 57°
2026-05-07 06:48 51.29734 168.20860 29724 ft 527 kts 57°
2026-05-07 06:48 51.33243 168.31137 29719 ft 526 kts 57°
2026-05-07 06:49 51.36739 168.41416 29726 ft 526 kts 57°
2026-05-07 06:49 51.40205 168.51652 29754 ft 527 kts 57°
2026-05-07 06:50 51.41951 168.56823 29910 ft 529 kts 57°
2026-05-07 06:50 51.43696 168.62006 30215 ft 528 kts 57°
2026-05-07 06:50 51.45434 168.67180 30548 ft 526 kts 57°
2026-05-07 06:50 51.47161 168.72333 30882 ft 524 kts 57°
2026-05-07 06:51 51.48883 168.77477 31182 ft 523 kts 58°
2026-05-07 06:51 51.50603 168.82623 31434 ft 523 kts 58°
2026-05-07 06:51 51.52320 168.87774 31672 ft 523 kts 58°
2026-05-07 06:51 51.54041 168.92944 31699 ft 523 kts 58°
2026-05-07 06:52 51.57420 169.03137 31704 ft 517 kts 58°
2026-05-07 06:52 51.60799 169.13370 31710 ft 516 kts 58°
2026-05-07 06:53 51.64160 169.23585 31710 ft 516 kts 59°
2026-05-07 06:53 51.67514 169.33821 31726 ft 516 kts 59°
2026-05-07 06:54 51.70856 169.44066 31713 ft 517 kts 59°
2026-05-07 06:54 51.74172 169.54276 31699 ft 517 kts 59°
2026-05-07 06:55 51.77495 169.64550 31701 ft 516 kts 59°
2026-05-07 06:55 51.80813 169.74850 31704 ft 516 kts 59°
2026-05-07 06:56 51.84119 169.85154 31704 ft 516 kts 60°
2026-05-07 06:56 51.87414 169.95467 31704 ft 515 kts 60°
2026-05-07 06:57 51.90691 170.05772 31699 ft 514 kts 60°
2026-05-07 06:57 51.93953 170.16072 31694 ft 513 kts 60°
2026-05-07 06:58 51.97203 170.26376 31712 ft 512 kts 60°
2026-05-07 06:58 52.00412 170.36598 31696 ft 511 kts 61°
2026-05-07 06:59 52.03633 170.46900 31697 ft 511 kts 61°
2026-05-07 06:59 52.06837 170.57201 31693 ft 510 kts 61°
2026-05-07 07:00 52.10040 170.67524 31702 ft 510 kts 60°
2026-05-07 07:00 52.13734 170.77274 31702 ft 508 kts 50°
2026-05-07 07:01 52.18307 170.85991 31708 ft 506 kts 46°
2026-05-07 07:01 52.22963 170.94619 31692 ft 507 kts 46°
2026-05-07 07:02 52.27592 171.03322 31693 ft 508 kts 47°
2026-05-07 07:02 52.32198 171.12087 31697 ft 507 kts 47°
2026-05-07 07:03 52.36780 171.20856 31690 ft 507 kts 47°
2026-05-07 07:03 52.41355 171.29638 31696 ft 506 kts 47°
2026-05-07 07:04 52.45923 171.38432 31705 ft 506 kts 48°
2026-05-07 07:04 52.50452 171.47178 31693 ft 505 kts 48°
2026-05-07 07:05 52.55001 171.55996 31696 ft 504 kts 48°
2026-05-07 07:05 52.59524 171.64794 31691 ft 503 kts 48°
2026-05-07 07:06 52.64031 171.73592 31693 ft 502 kts 48°
2026-05-07 07:06 52.68501 171.82348 31696 ft 502 kts 48°
2026-05-07 07:07 52.72991 171.91174 31696 ft 502 kts 48°
2026-05-07 07:07 52.77477 172.00024 31703 ft 502 kts 49°
2026-05-07 07:08 52.81956 172.08891 31694 ft 502 kts 49°
2026-05-07 07:08 52.86430 172.17781 31702 ft 502 kts 49°
2026-05-07 07:09 52.90895 172.26683 31698 ft 502 kts 49°
2026-05-07 07:09 52.95324 172.35544 31703 ft 502 kts 49°
2026-05-07 07:10 52.99771 172.44472 31705 ft 501 kts 50°
2026-05-07 07:10 53.04210 172.53420 31706 ft 501 kts 50°
2026-05-07 07:11 53.08639 172.62377 31703 ft 501 kts 50°
2026-05-07 07:11 53.13057 172.71344 31704 ft 500 kts 50°
2026-05-07 07:12 53.17465 172.80324 31700 ft 500 kts 50°
2026-05-07 07:12 53.21120 172.87793 31711 ft 500 kts 51°
2026-05-07 07:13 53.26214 172.98243 31701 ft 499 kts 51°
2026-05-07 07:13 53.30588 173.07249 31712 ft 498 kts 51°
2026-05-07 07:14 53.34208 173.14729 31705 ft 498 kts 51°
2026-05-07 07:14 53.38560 173.23752 31706 ft 497 kts 51°
2026-05-07 07:15 53.42898 173.32780 31699 ft 497 kts 52°
2026-05-07 07:15 53.47214 173.41836 31707 ft 496 kts 52°
2026-05-07 07:16 53.51534 173.50884 31707 ft 496 kts 52°
2026-05-07 07:16 53.55603 173.60259 31719 ft 495 kts 58°
2026-05-07 07:17 53.59279 173.69998 31710 ft 496 kts 59°
2026-05-07 07:17 53.62955 173.79825 31708 ft 496 kts 59°
2026-05-07 07:18 53.66648 173.89642 31714 ft 495 kts 59°
2026-05-07 07:18 53.70339 173.99440 31733 ft 495 kts 59°
2026-05-07 07:19 53.74026 174.09254 31719 ft 494 kts 59°
2026-05-07 07:19 53.77698 174.19068 31723 ft 494 kts 59°
2026-05-07 07:20 53.81338 174.28839 31729 ft 493 kts 60°
2026-05-07 07:20 53.84985 174.38671 31735 ft 493 kts 60°
2026-05-07 07:21 53.88625 174.48520 31732 ft 492 kts 60°
2026-05-07 07:21 53.92247 174.58362 31736 ft 491 kts 60°
2026-05-07 07:22 53.95861 174.68219 31730 ft 491 kts 60°
2026-05-07 07:22 53.99465 174.78086 31727 ft 491 kts 61°
2026-05-07 07:23 54.03034 174.87898 31740 ft 490 kts 61°
2026-05-07 07:23 54.06615 174.97785 31739 ft 490 kts 61°
2026-05-07 07:24 54.10186 175.07682 31739 ft 490 kts 61°
2026-05-07 07:24 54.13751 175.17600 31744 ft 490 kts 61°
2026-05-07 07:25 54.19080 175.32502 31745 ft 490 kts 62°
2026-05-07 07:26 54.22622 175.42455 31746 ft 489 kts 62°
2026-05-07 07:26 54.26122 175.52333 31747 ft 489 kts 62°
2026-05-07 07:27 54.29633 175.62279 31754 ft 488 kts 62°